sat.trackr.live / text

‹ back to catalog

ONEWEB-0329

NORAD 49107 · 2021-075AJ

PAYLOAD ACTIVE UNKNOWN

§ Identity

Operator
Country
UK
Launch date
2021-08-21
Launch site
TYMSC
Launch vehicle
Mass (kg)
RCS (m²)

Purposes: comms

External: N2YO · Heavens-Above · Gunter

§ Orbital elements

Epoch: 2026-05-25T00:30:40.726080Z

Period
109.29 min
Inclination
87.9155°
Eccentricity
0.0001858
Mean motion
13.17650491 rev/d
Perigee alt
1,192.3 km
Apogee alt
1,195.1 km
Semi-major
7,571.8 km
B*
-2.7964e-5
RAAN
10.4759°
Arg perigee
89.3787°
Mean anomaly
270.7558°
Rev number
23,053

§ Raw data

ONEWEB-03291 49107U 21075AJ  26145.02130470  .00000002  00000+0 -27964-4 0  99952 49107  87.9155  10.4759 0001858  89.3787 270.7558 13.17650491230532

JSON: /api/v1/satellites/49107 · /tle

For live sub-satellite position, see the globe view (requires WebGL).

§ Visibility from observer

Set your observer location to see the next 7 days of passes ≥ 10°. The values pass through the URL so the page stays shareable.

No JS? Fill the form by hand. The geolocation button needs JavaScript.